Flag for U.S.A. Weather past 2 weeks in Sioux Falls, South Dakota, U.S.A.

50 °F


Feels Like: 45 °F
Forecast: 50 / 78 °F
Wind: 13 mph from Southwest

Location: Foss Field

Current Time: Oct 10, 2015 at 4:20:00 AM

Latest Report: Oct 10, 2015 at 3:56 AM

Visibility: 10 mi

Pressure: 30.07 "Hg

Humidity: 71%

Dew point: 41 °F

Location of Sioux FallsLocation

Historic Weather in Sioux Falls — Graph


Sioux Falls temperature yesterday

Maximum temperature yesterday: 62 °F (at 3:56 PM)
Minimum temperature yesterday: 43 °F (at 3:56 AM)
Average temperature yesterday: 52 °F

Past Weeks' High & Low Weather Summary

High82 °F (Sep 27, 3:56 PM)93% (Sep 25, 4:56 AM)30.45 "Hg (Sep 25, 4:56 AM)
Low42 °F (Oct 2, 4:56 AM)27% (Sep 30, 3:56 PM)29.76 "Hg (Sep 27, 6:56 PM)
Average59 °F64%30.16 "Hg
* Reported Sep 25 2:56 AM — Oct 10 2:56 AM, Sioux Falls, Weather by CustomWeather, © 2015

Note: Actual official high and low records may vary slightly from our data, if they occured in-between our weather recording intervals... More about our weather records


Sioux Falls weather history for previous 24 hours

Time TempWeatherWind HumidityBarometerVisibility
2:56 AM
Sat, Oct 10
50 °FClear.12 mph71%30.10 "Hg10 mi
1:56 AM50 °FClear.12 mph71%30.12 "Hg10 mi
12:56 AM50 °FClear.9 mph71%30.15 "Hg10 mi
11:56 PM
Fri, Oct 9
50 °FClear.8 mph71%30.17 "Hg10 mi
10:56 PM50 °FPassing clouds.8 mph71%30.18 "Hg10 mi
9:56 PM52 °FPassing clouds.5 mph66%30.18 "Hg10 mi
8:56 PM53 °FOvercast.7 mph66%30.19 "Hg10 mi
7:56 PM56 °FOvercast.5 mph62%30.21 "Hg10 mi
6:56 PM58 °FHigh level clouds.5 mph58%30.21 "Hg10 mi
5:56 PM59 °FOvercast.6 mph56%30.21 "Hg10 mi
4:56 PM61 °FOvercast.6 mph54%30.23 "Hg10 mi
3:56 PM62 °FHigh level clouds.No wind52%30.24 "Hg10 mi
2:56 PM61 °FHigh level clouds.5 mph52%30.27 "Hg10 mi
1:56 PM61 °FOvercast.No wind52%30.29 "Hg10 mi
12:56 PM57 °FScattered clouds.5 mph60%30.32 "Hg10 mi
11:56 AM56 °FPartly sunny.5 mph62%30.34 "Hg10 mi
10:56 AM54 °FPartly sunny.No wind64%30.36 "Hg10 mi
9:56 AM51 °FPassing clouds.3 mph80%30.35 "Hg10 mi
8:56 AM48 °FScattered clouds.No wind83%30.35 "Hg10 mi
7:56 AM44 °FOvercast.No wind93%30.36 "Hg10 mi
6:56 AM44 °FOvercast.5 mph89%30.34 "Hg10 mi
6:02 AM44 °FPassing clouds.6 mph89%30.30 "Hg10 mi
4:56 AM43 °FPassing clouds.6 mph89%30.30 "Hg10 mi
Weather by CustomWeather, © 2015

See weather overviewHow to use our weather pages